Wind_Speed
23 25 24 28 31 32 33 31 27 23 28 30 33 35 37 37 38 38 37 39 37 33 33 35 34 33 33 35 33 31 31 31 32 31 31 31 31 31 32 30 25 23 25 25
18 21 24 28 27 25 26 25 23 20 23 26 32 37 39 40 40 40 41 41 41 40 39 38 39 39 37 35 34 32 31 33 31 30 29 28 29 31 33 32 27 23 22 19
17 22 25 29 29 25 24 23 23 25 29 31 35 38 40 39 38 39 38 40 41 41 39 38 38 38 39 38 35 33 31 34 36 33 29 26 26 29 31 30 26 24 25 20
19 21 21 23 22 27 35 33 29 35 41 42 39 36 33 33 34 34 35 35 37 37 37 36 36 36 38 38 37 36 34 33 35 34 32 30 29 31 33 33 29 27 26 25
14 18 19 23 24 17 19 26 29 32 34 31 29 29 29 28 28 28 28 29 31 33 33 32 33 34 35 35 33 33 33 32 34 33 33 34 34 32 36 40 36 30 31 31
11 14 17 17 20 21 18 14 13 15 19 22 23 23 22 23 25 25 25 26 27 26 28 27 26 27 28 28 26 25 27 27 28 33 31 28 28 31 38 43 42 39 38 37
12 15 15 13 14 14 16 17 15 15 16 16 17 18 20 22 23 24 24 27 27 23 20 18 18 18 17 19 21 22 22 22 21 22 24 22 22 28 34 35 34 35 38 38
14 16 16 15 16 15 15 15 14 14 12 11 12 15 18 20 20 21 22 24 23 19 16 13 13 14 16 15 17 17 17 21 24 25 22 20 22 30 37 38 38 36 33 32
11 11 13 12 13 16 14 13 13 13 12 11 11 16 19 20 20 18 17 17 15 12 13 16 19 19 17 15 14 14 13 16 21 26 22 21 23 25 26 26 26 28 28 29
9 5 7 7 7 8 8 8 9 10 10 10 13 17 20 21 20 17 15 13 12 11 12 16 16 17 19 22 20 15 18 18 21 26 28 29 29 25 23 21 21 21 22 25
10 6 3 4 6 9 9 9 10 11 13 16 19 20 20 20 18 15 13 14 14 13 14 17 19 21 26 25 24 26 26 28 32 31 31 31 30 29 25 24 26 25 25 24
13 11 8 6 6 9 10 10 12 13 14 14 16 18 18 17 17 17 17 16 16 17 19 20 21 23 26 29 30 33 35 37 37 35 35 31 32 33 33 31 27 27 32 33
15 15 13 10 8 8 9 10 11 12 12 14 15 16 17 18 19 20 20 20 20 20 21 22 23 26 28 30 31 34 38 38 37 37 37 35 32 32 33 33 30 31 36 41
16 15 15 14 12 12 11 10 9 10 12 14 15 17 17 17 18 18 17 17 17 17 18 19 20 23 27 31 32 34 36 38 39 39 42 43 40 35 34 34 33 36 37 37
20 19 18 17 16 15 13 13 13 15 16 16 17 17 17 18 20 19 18 16 14 14 14 16 17 18 20 24 28 31 33 36 39 40 37 39 39 40 41 39 38 39 39 40
17 18 18 18 18 17 15 13 15 18 19 18 16 15 16 18 19 18 18 18 17 16 16 15 16 18 18 21 22 25 28 31 34 36 35 33 31 33 36 39 41 42 44 44
14 15 15 16 16 15 15 15 14 14 16 17 17 18 17 17 18 19 19 19 19 19 19 19 19 18 18 20 22 25 28 30 31 32 33 35 37 38 37 37 39 41 43 46
12 13 14 14 14 15 15 15 15 15 16 16 17 19 20 21 21 20 18 18 18 18 19 20 20 20 20 22 23 25 27 28 30 32 34 36 38 39 40 40 40 39 40 42
14 14 15 15 15 15 15 15 16 16 16 16 16 16 17 18 20 21 21 19 19 19 20 20 20 20 21 23 23 25 28 30 32 34 36 39 40 39 40 41 43 44 44 44
17 15 15 16 17 17 17 16 17 17 18 19 19 19 19 19 19 19 19 19 18 19 21 22 21 22 23 24 25 28 30 33 34 36 36 38 38 37 39 42 44 46 47 46
16 17 18 17 18 19 18 18 18 18 18 18 19 20 20 20 20 19 19 20 20 21 22 23 23 24 24 26 28 30 31 33 33 33 33 34 35 36 39 42 43 44 44 43
16 17 18 19 20 21 21 20 20 20 21 20 20 21 21 21 22 22 22 21 21 22 23 24 24 24 25 27 28 28 30 32 33 33 34 34 36 39 41 40 37 37 38 37
17 17 17 19 20 20 21 21 21 20 20 22 22 22 22 22 21 21 22 23 23 24 24 24 24 25 26 26 28 31 33 36 38 38 39 39 39 39 39 37 33 32 33 33
19 18 19 20 21 21 21 21 21 21 21 22 22 23 23 23 23 20 20 24 26 27 27 27 26 26 27 28 30 33 34 37 41 41 41 41 40 38 36 35 32 30 30 32
20 19 19 19 20 20 21 22 22 22 23 23 23 24 25 26 25 21 21 24 26 27 28 29 29 29 31 32 33 34 34 39 42 42 40 38 36 35 32 31 30 29 29 29
21 20 19 18 18 19 20 21 22 23 23 23 23 25 26 26 25 23 25 27 28 29 29 29 30 31 32 34 36 36 37 39 41 41 39 36 33 31 30 27 26 26 26 25
20 18 19 19 18 19 20 20 20 21 21 19 20 24 26 26 24 25 27 28 29 29 30 31 31 31 33 37 39 39 39 39 39 39 36 33 31 28 26 25 24 24 24 23
Wind_Direction
280 263 252 252 256 256 257 257 267 267 257 257 260 265 272 273 272 276 282 283 278 276 276 275 274 273 271 270 268 264 259 260 261 263 263 263 261 259 260 264 270 268 258 265
271 256 236 246 253 257 254 254 258 255 255 267 273 272 272 274 275 276 276 276 276 280 279 273 269 269 269 268 266 265 262 258 260 261 262 263 258 256 259 258 257 259 256 254
251 248 243 248 253 246 251 247 240 252 268 275 275 279 280 280 279 275 276 273 273 277 278 275 271 269 266 264 265 265 264 259 255 257 258 261 258 253 253 251 250 245 246 243
241 245 251 249 259 246 248 258 266 272 277 283 284 283 284 283 284 282 278 276 275 274 274 272 270 267 265 262 260 260 258 257 254 252 253 248 249 247 247 245 242 244 246 246
258 261 254 243 242 263 259 268 273 272 271 272 274 277 280 282 281 282 286 287 286 282 277 271 266 263 261 259 257 255 254 253 252 251 249 250 249 243 241 240 238 239 244 242
271 265 258 257 256 255 257 277 277 271 264 267 272 277 284 287 286 286 288 291 295 290 279 268 261 258 256 254 252 247 246 247 247 247 247 255 254 246 240 236 233 228 236 236
273 277 271 265 272 272 269 277 280 272 268 269 275 284 291 292 288 283 282 285 295 292 284 266 254 248 254 248 242 240 238 236 234 237 241 246 242 233 228 225 231 233 235 235
295 281 275 272 265 287 291 279 277 270 272 275 289 304 308 300 291 286 289 293 297 288 264 254 259 247 252 253 244 238 235 233 230 232 240 244 246 246 247 251 253 253 251 249
308 287 271 280 282 286 297 291 282 273 267 266 287 310 313 305 297 296 300 301 297 285 253 249 242 242 244 245 241 252 261 254 250 247 253 272 284 281 271 268 266 260 256 252
341 302 258 252 266 280 288 289 277 270 264 265 288 301 301 299 295 293 296 299 293 279 255 242 249 245 229 232 238 244 253 250 247 255 269 277 281 273 265 262 259 258 258 255
11 21 328 279 279 283 279 281 282 286 291 294 297 300 296 293 290 288 290 294 292 284 267 257 257 250 251 264 259 242 250 258 253 256 265 265 250 254 259 264 265 259 247 240
27 29 16 350 320 313 311 304 299 299 303 305 308 307 301 295 292 291 291 292 293 289 284 278 271 263 260 263 260 254 257 257 262 265 264 258 255 259 262 264 263 250 244 246
21 20 16 7 348 338 329 320 311 306 307 312 312 306 301 298 297 294 291 290 290 291 288 283 279 277 273 267 264 261 261 263 262 260 255 248 246 253 257 261 259 257 254 256
18 13 12 11 6 10 7 1 355 340 328 324 320 315 307 301 300 300 296 290 289 291 293 291 288 285 283 279 274 267 264 262 259 260 256 254 254 257 260 263 265 266 266 265
12 10 4 360 1 2 2 352 340 332 329 330 329 330 326 322 318 316 308 298 291 291 292 292 295 293 288 282 279 278 276 274 273 278 279 277 276 276 276 276 276 275 274 272
10 7 3 360 1 1 3 354 340 335 338 343 341 338 334 332 328 323 315 310 304 300 297 295 294 295 295 290 287 283 280 279 279 281 284 283 277 272 270 271 270 268 267 265
3 359 360 0 356 353 358 0 355 352 351 349 346 344 341 338 335 329 324 321 316 311 306 300 298 296 288 282 284 285 284 283 283 282 282 282 282 281 281 279 277 275 271 268
343 345 345 347 347 345 344 345 347 352 351 351 347 340 339 338 337 334 327 322 318 312 305 303 302 300 295 291 292 294 295 293 291 288 284 281 279 280 280 279 277 274 270 267
321 327 329 330 332 333 333 330 328 330 332 335 337 333 330 329 330 331 331 327 321 313 308 306 301 296 292 292 295 299 300 299 298 298 296 293 291 288 285 283 280 277 273 268
305 310 315 320 321 320 322 324 324 323 320 321 324 325 325 324 323 325 326 322 318 312 309 308 304 301 302 302 301 301 302 303 303 302 299 295 293 291 288 286 285 283 278 273
293 300 305 307 304 305 310 315 317 319 318 317 319 320 319 319 319 319 318 319 322 321 320 316 310 305 303 303 304 305 305 302 299 298 295 291 288 287 287 288 287 283 279 276
298 296 299 303 302 300 301 305 307 311 315 318 318 316 317 319 319 318 316 316 318 320 319 318 316 312 310 310 311 311 312 312 310 306 301 298 296 296 295 294 290 283 278 275
294 297 302 307 309 308 303 297 297 302 306 310 313 312 313 315 314 313 310 311 313 315 317 318 316 316 317 318 318 317 319 323 322 317 311 307 305 301 298 297 293 284 278 275
288 298 309 314 314 313 312 308 300 298 300 303 307 308 309 308 306 310 310 306 308 312 316 317 319 320 320 319 318 317 315 316 317 314 311 308 305 301 298 294 290 285 279 276
284 293 304 308 307 310 313 314 310 302 298 300 306 309 308 304 303 306 304 304 308 311 314 316 318 320 321 319 316 314 313 314 313 312 311 309 305 301 296 291 289 287 283 280
276 286 293 296 298 303 306 309 307 304 304 305 308 310 309 309 311 313 314 314 311 309 312 315 315 316 320 321 318 317 318 318 315 315 317 316 311 304 298 294 290 288 286 285
264 277 289 290 286 291 297 301 301 301 300 304 309 312 314 319 322 326 328 322 315 316 319 316 312 315 323 326 326 325 322 320 319 319 322 320 315 311 305 299 294 291 289 289
Height
5746 5745 5748 5748 5749 5750 5751 5753 5755 5757 5757 5757 5759 5760 5760 5759 5758 5758 5758 5760 5762 5763 5764 5764 5763 5764 5764 5764 5765 5765 5765 5765 5765 5766 5766 5767 5768 5770 5772 5773 5773 5772 5772 5773
5741 5738 5741 5743 5743 5744 5743 5745 5747 5748 5749 5751 5751 5750 5750 5750 5751 5750 5750 5750 5750 5751 5753 5753 5754 5754 5753 5753 5754 5754 5754 5756 5757 5757 5758 5758 5759 5760 5763 5764 5764 5764 5765 5766
5736 5733 5735 5737 5738 5741 5739 5738 5741 5742 5743 5744 5744 5742 5741 5740 5740 5741 5742 5741 5740 5738 5738 5738 5739 5739 5740 5741 5742 5743 5744 5746 5748 5748 5749 5750 5750 5752 5753 5755 5756 5757 5759 5759
5730 5729 5729 5732 5731 5733 5733 5733 5733 5732 5733 5734 5735 5733 5732 5731 5730 5729 5729 5729 5728 5727 5726 5726 5725 5726 5727 5728 5730 5732 5733 5735 5737 5739 5740 5741 5742 5743 5745 5747 5748 5749 5749 5752
5725 5724 5724 5726 5725 5726 5728 5729 5728 5727 5727 5727 5727 5726 5725 5724 5722 5721 5720 5718 5717 5715 5714 5714 5715 5716 5717 5718 5720 5721 5722 5724 5725 5728 5730 5732 5734 5735 5737 5738 5738 5739 5740 5743
5721 5721 5721 5723 5721 5722 5725 5726 5725 5723 5722 5722 5721 5720 5720 5718 5715 5713 5711 5710 5709 5707 5704 5705 5706 5707 5708 5710 5712 5714 5715 5716 5717 5718 5720 5723 5724 5726 5729 5729 5729 5729 5731 5734
5717 5716 5716 5717 5716 5718 5721 5720 5719 5717 5716 5716 5715 5715 5714 5712 5710 5707 5706 5704 5701 5700 5699 5699 5700 5701 5702 5703 5705 5707 5708 5708 5710 5710 5712 5715 5717 5719 5721 5721 5723 5724 5724 5725
5712 5712 5713 5712 5712 5713 5713 5713 5712 5711 5712 5711 5710 5709 5707 5705 5703 5701 5700 5697 5695 5694 5695 5696 5696 5697 5698 5698 5700 5701 5702 5703 5704 5705 5705 5707 5708 5710 5711 5711 5712 5714 5714 5716
5709 5709 5708 5707 5708 5708 5708 5707 5707 5707 5707 5706 5705 5703 5701 5698 5697 5695 5694 5692 5691 5690 5690 5692 5693 5693 5694 5695 5695 5696 5697 5697 5698 5698 5698 5699 5699 5700 5699 5700 5702 5703 5704 5706
5705 5703 5703 5703 5704 5704 5704 5703 5703 5702 5702 5702 5701 5699 5697 5694 5692 5690 5689 5687 5687 5687 5687 5688 5689 5689 5689 5691 5692 5692 5692 5693 5694 5694 5694 5693 5693 5692 5692 5693 5695 5697 5696 5697
5702 5702 5700 5699 5699 5699 5700 5699 5698 5698 5697 5696 5695 5693 5692 5690 5687 5685 5684 5683 5683 5682 5682 5683 5683 5684 5685 5684 5687 5686 5686 5686 5687 5687 5687 5686 5687 5687 5686 5686 5687 5689 5689 5690
5704 5702 5700 5699 5697 5696 5695 5694 5693 5692 5692 5691 5690 5688 5686 5685 5684 5682 5680 5679 5678 5677 5676 5676 5676 5676 5676 5676 5677 5679 5677 5677 5678 5678 5679 5679 5679 5679 5679 5679 5678 5679 5680 5680
5706 5702 5701 5698 5696 5695 5693 5691 5689 5688 5687 5686 5685 5684 5682 5681 5679 5677 5676 5674 5673 5671 5669 5669 5668 5668 5668 5668 5669 5670 5670 5668 5668 5668 5669 5669 5669 5669 5669 5669 5670 5670 5670 5670
5708 5705 5702 5699 5696 5694 5692 5690 5689 5687 5685 5684 5682 5681 5679 5677 5675 5673 5671 5669 5667 5665 5663 5662 5660 5660 5659 5659 5659 5660 5659 5658 5658 5657 5658 5658 5658 5658 5658 5656 5657 5657 5657 5657
5708 5705 5702 5699 5696 5693 5691 5689 5687 5685 5683 5681 5679 5678 5676 5673 5670 5667 5665 5664 5662 5661 5659 5657 5655 5654 5653 5652 5652 5650 5649 5648 5647 5647 5648 5647 5646 5644 5642 5642 5642 5643 5643 5643
5708 5704 5701 5698 5695 5693 5690 5688 5684 5681 5678 5676 5675 5673 5671 5668 5665 5662 5660 5659 5658 5656 5655 5653 5650 5648 5647 5646 5644 5643 5642 5639 5638 5637 5635 5633 5632 5631 5630 5629 5628 5627 5627 5628
5707 5704 5701 5698 5695 5692 5689 5687 5684 5681 5678 5675 5672 5670 5667 5664 5661 5658 5656 5654 5652 5650 5648 5647 5645 5643 5641 5638 5636 5635 5633 5631 5629 5627 5625 5622 5620 5619 5618 5617 5615 5613 5612 5610
5705 5702 5699 5696 5693 5690 5686 5684 5681 5679 5676 5673 5669 5666 5663 5660 5657 5655 5652 5650 5647 5645 5643 5641 5639 5637 5634 5632 5629 5627 5625 5622 5619 5616 5614 5612 5610 5608 5606 5604 5602 5600 5598 5595
5701 5699 5696 5694 5691 5688 5685 5682 5679 5675 5673 5670 5668 5664 5661 5657 5654 5652 5649 5646 5643 5640 5637 5635 5633 5631 5628 5625 5623 5620 5617 5614 5611 5607 5603 5598 5595 5593 5591 5588 5585 5583 5581 5579
5696 5694 5692 5689 5686 5684 5682 5678 5675 5672 5669 5666 5664 5661 5657 5654 5651 5649 5645 5643 5639 5636 5633 5630 5628 5624 5620 5618 5616 5613 5610 5606 5601 5597 5592 5588 5584 5581 5577 5573 5570 5567 5564 5563
5690 5687 5685 5683 5682 5679 5677 5674 5671 5668 5665 5662 5659 5656 5653 5650 5647 5645 5642 5638 5635 5631 5628 5625 5622 5619 5615 5612 5608 5605 5601 5596 5592 5587 5582 5577 5574 5569 5565 5561 5556 5552 5548 5547
5682 5681 5679 5677 5675 5672 5670 5667 5665 5662 5658 5656 5653 5651 5648 5645 5642 5639 5636 5634 5631 5627 5624 5619 5616 5612 5609 5605 5601 5597 5592 5586 5581 5575 5570 5565 5560 5555 5550 5546 5542 5538 5535 5533
5674 5674 5672 5670 5668 5665 5662 5661 5659 5656 5653 5650 5647 5644 5642 5639 5637 5635 5631 5628 5626 5622 5618 5614 5610 5605 5601 5597 5593 5587 5581 5575 5569 5563 5557 5551 5547 5541 5536 5532 5529 5525 5523 5521
5665 5664 5663 5662 5660 5657 5654 5653 5651 5649 5647 5644 5641 5638 5636 5633 5632 5629 5625 5621 5618 5614 5610 5606 5601 5597 5592 5588 5583 5578 5572 5566 5560 5554 5547 5540 5533 5528 5523 5519 5516 5514 5512 5510
5657 5656 5656 5655 5653 5650 5647 5644 5642 5641 5639 5637 5634 5632 5629 5627 5625 5623 5619 5615 5611 5606 5601 5597 5593 5588 5584 5579 5574 5569 5564 5557 5550 5543 5536 5528 5521 5515 5510 5507 5503 5502 5500 5498
5648 5648 5648 5647 5645 5643 5640 5638 5635 5633 5631 5629 5628 5625 5623 5620 5618 5616 5612 5607 5603 5598 5594 5590 5585 5581 5576 5570 5564 5559 5553 5546 5538 5531 5523 5515 5509 5503 5499 5495 5492 5491 5489 5488
5640 5640 5639 5639 5637 5635 5633 5631 5629 5626 5624 5623 5622 5620 5616 5612 5609 5607 5604 5601 5598 5594 5589 5584 5579 5573 5568 5560 5553 5547 5541 5535 5528 5521 5513 5506 5499 5494 5489 5486 5484 5482 5479 5478